| time (UTC) | temp F | wind direction | speed MPH | gust MPH | rain 1hr in | rain 24hr in | rain mn in | humidity % | barometer mb |
| 20260508233216 | 66 | 225 | 3.0 | 4.0 | 0.00 | 0.00 | 0.00 | 43 | 1004.5 |
| 20260508232216 | 67 | 225 | 5.0 | 6.0 | 0.00 | 0.00 | 0.00 | 42 | 1004.5 |
| 20260508231216 | 68 | 203 | 2.0 | 4.0 | 0.00 | 0.00 | 0.00 | 41 | 1004.5 |
| 20260508230216 | 67 | 203 | 7.0 | 10.0 | 0.00 | 0.00 | 0.00 | 42 | 1004.7 |
| 20260508225216 | 68 | 203 | 5.0 | 7.0 | 0.00 | 0.00 | 0.00 | 41 | 1004.6 |
| 20260508224236 | 68 | 225 | 4.0 | 5.0 | 0.00 | 0.00 | 0.00 | 42 | 1004.6 |
| 20260508223216 | 68 | 113 | 3.0 | 6.0 | 0.00 | 0.00 | 0.00 | 43 | 1004.6 |
| 20260508222216 | 67 | 158 | 2.0 | 3.0 | 0.00 | 0.00 | 0.00 | 44 | 1004.7 |
| 20260508221216 | 68 | 180 | 4.0 | 5.0 | 0.00 | 0.00 | 0.00 | 44 | 1004.9 |
| 20260508220236 | 68 | 225 | 5.0 | 8.0 | 0.00 | 0.00 | 0.00 | 43 | 1005.0 |
| 20260508215216 | 68 | 248 | 5.0 | 7.0 | 0.00 | 0.04 | 0.00 | 41 | 1005.0 |
| 20260508214216 | 68 | 180 | 4.0 | 6.0 | 0.00 | 0.04 | 0.00 | 41 | 1005.0 |
| 20260508213216 | 66 | 225 | 5.0 | 7.0 | 0.00 | 0.04 | 0.00 | 44 | 1005.1 |
| 20260508212216 | 66 | 203 | 5.0 | 5.0 | 0.00 | 0.04 | 0.00 | 43 | 1005.1 |
| 20260508211216 | 67 | 248 | 4.0 | 7.0 | 0.00 | 0.04 | 0.00 | 42 | 1005.3 |
| 20260508210216 | 67 | 270 | 3.0 | 4.0 | 0.00 | 0.04 | 0.00 | 40 | 1005.2 |
| 20260508205216 | 68 | 293 | 1.0 | 2.0 | 0.00 | 0.05 | 0.00 | 40 | 1005.3 |
| 20260508204216 | 68 | 248 | 2.0 | 4.0 | 0.00 | 0.05 | 0.00 | 41 | 1005.5 |
| 20260508203216 | 69 | 180 | 6.0 | 10.0 | 0.00 | 0.05 | 0.00 | 40 | 1005.7 |
| 20260508202215 | 69 | 135 | 5.0 | 7.0 | 0.00 | 0.05 | 0.00 | 42 | 1005.9 |
| 20260508201218 | 68 | 158 | 6.0 | 8.0 | 0.00 | 0.05 | 0.00 | 42 | 1005.9 |
| 20260508200218 | 67 | 225 | 6.0 | 9.0 | 0.00 | 0.05 | 0.00 | 42 | 1006.2 |
| 20260508195218 | 69 | 203 | 5.0 | 7.0 | 0.00 | 0.05 | 0.00 | 40 | 1006.3 |
| 20260508194217 | 69 | 270 | 1.0 | 2.0 | 0.00 | 0.05 | 0.00 | 36 | 1006.4 |
| 20260508193238 | 68 | 225 | 3.0 | 4.0 | 0.00 | 0.05 | 0.00 | 40 | 1006.5 |
| 20260508192218 | 68 | 203 | 7.0 | 8.0 | 0.00 | 0.05 | 0.00 | 40 | 1006.7 |
| 20260508191217 | 68 | 225 | 2.0 | 4.0 | 0.00 | 0.05 | 0.00 | 39 | 1006.7 |
| 20260508190238 | 68 | 248 | 1.0 | 2.0 | 0.00 | 0.05 | 0.00 | 37 | 1006.9 |
| 20260508185238 | 67 | 248 | 1.0 | 4.0 | 0.00 | 0.05 | 0.00 | 41 | 1006.9 |
| 20260508184216 | 67 | 113 | 2.0 | 4.0 | 0.00 | 0.05 | 0.00 | 39 | 1007.1 |
| 20260508183218 | 67 | 203 | 2.0 | 4.0 | 0.00 | 0.05 | 0.00 | 41 | 1007.4 |
| 20260508182217 | 66 | 203 | 6.0 | 9.0 | 0.00 | 0.05 | 0.00 | 44 | 1007.4 |
| 20260508181218 | 66 | 90 | 6.0 | 9.0 | 0.00 | 0.05 | 0.00 | 45 | 1007.5 |
| 20260508180217 | 66 | 90 | 4.0 | 8.0 | 0.00 | 0.05 | 0.00 | 45 | 1007.6 |
| 20260508175238 | 67 | 113 | 3.0 | 6.0 | 0.00 | 0.05 | 0.00 | 43 | 1007.7 |
| 20260508174218 | 67 | 90 | 3.0 | 6.0 | 0.00 | 0.05 | 0.00 | 44 | 1008.0 |
| 20260508173238 | 66 | 180 | 5.0 | 6.0 | 0.00 | 0.05 | 0.00 | 44 | 1008.1 |
| 20260508172217 | 66 | 68 | 2.0 | 5.0 | 0.00 | 0.05 | 0.00 | 41 | 1008.3 |
| 20260508171217 | 66 | 135 | 1.0 | 2.0 | 0.00 | 0.05 | 0.00 | 37 | 1008.5 |
| 20260508170217 | 66 | 180 | 5.0 | 8.0 | 0.00 | 0.05 | 0.00 | 38 | 1008.7 |
| 20260508165218 | 65 | 248 | 2.0 | 3.0 | 0.00 | 0.05 | 0.00 | 38 | 1008.7 |
| 20260508164258 | 65 | 90 | 4.0 | 6.0 | 0.00 | 0.05 | 0.00 | 37 | 1008.9 |
| 20260508163237 | 66 | 135 | 5.0 | 7.0 | 0.00 | 0.05 | 0.00 | 38 | 1009.1 |
| 20260508162238 | 64 | 90 | 2.0 | 3.0 | 0.00 | 0.05 | 0.00 | 43 | 1009.3 |
| 20260508161238 | 63 | 113 | 6.0 | 9.0 | 0.00 | 0.05 | 0.00 | 40 | 1009.4 |
| 20260508160217 | 63 | 90 | 5.0 | 6.0 | 0.00 | 0.05 | 0.00 | 43 | 1009.3 |
| 20260508155217 | 63 | 113 | 2.0 | 4.0 | 0.00 | 0.05 | 0.00 | 46 | 1009.4 |
| 20260508154217 | 62 | 203 | 2.0 | 4.0 | 0.00 | 0.05 | 0.00 | 43 | 1009.5 |
| 20260508153217 | 62 | 45 | 1.0 | 3.0 | 0.00 | 0.05 | 0.00 | 46 | 1009.6 |
| 20260508152217 | 61 | 90 | 3.0 | 7.0 | 0.00 | 0.05 | 0.00 | 51 | 1009.7 |
| 20260508151257 | 59 | 90 | 5.0 | 8.0 | 0.00 | 0.05 | 0.00 | 55 | 1009.7 |
| 20260508150218 | 59 | 113 | 1.0 | 2.0 | 0.00 | 0.05 | 0.00 | 58 | 1009.8 |
| 20260508145217 | 58 | 113 | 3.0 | 6.0 | 0.00 | 0.05 | 0.00 | 62 | 1009.9 |
| 20260508144218 | 57 | 45 | 3.0 | 4.0 | 0.00 | 0.05 | 0.00 | 65 | 1010.0 |
| 20260508143217 | 56 | 90 | 4.0 | 6.0 | 0.00 | 0.05 | 0.00 | 69 | 1010.0 |
| 20260508142217 | 55 | 113 | 2.0 | 3.0 | 0.00 | 0.05 | 0.00 | 72 | 1010.2 |
| 20260508141217 | 54 | 135 | 1.0 | 2.0 | 0.00 | 0.05 | 0.00 | 73 | 1010.2 |
| 20260508140238 | 53 | 135 | 2.0 | 4.0 | 0.00 | 0.05 | 0.00 | 74 | 1010.2 |
| 20260508135217 | 53 | 135 | 2.0 | 3.0 | 0.00 | 0.05 | 0.00 | 77 | 1010.1 |
| 20260508134217 | 52 | 135 | 4.0 | 6.0 | 0.00 | 0.05 | 0.00 | 81 | 1010.1 |
| 20260508133238 | 50 | 90 | 3.0 | 4.0 | 0.00 | 0.05 | 0.00 | 84 | 1010.0 |
| 20260508132237 | 49 | 68 | 3.0 | 6.0 | 0.00 | 0.05 | 0.00 | 87 | 1010.0 |
| 20260508131217 | 48 | 113 | 2.0 | 3.0 | 0.00 | 0.05 | 0.00 | 89 | 1010.0 |
| 20260508130217 | 47 | 90 | 5.0 | 8.0 | 0.00 | 0.05 | 0.00 | 91 | 1010.1 |
| 20260508125217 | 45 | 68 | 2.0 | 3.0 | 0.00 | 0.05 | 0.00 | 91 | 1010.0 |
| 20260508124217 | 45 | 90 | 4.0 | 7.0 | 0.00 | 0.05 | 0.00 | 92 | 1010.0 |
| 20260508123217 | 44 | 90 | 3.0 | 4.0 | 0.00 | 0.05 | 0.00 | 92 | 1010.2 |
| 20260508122217 | 43 | 113 | 3.0 | 4.0 | 0.00 | 0.05 | 0.00 | 92 | 1010.2 |
| 20260508121217 | 42 | 90 | 3.0 | 3.0 | 0.00 | 0.05 | 0.00 | 92 | 1010.0 |
| 20260508120237 | 42 | 90 | 2.0 | 3.0 | 0.00 | 0.05 | 0.00 | 92 | 1010.1 |
| 20260508115217 | 41 | 68 | 2.0 | 2.0 | 0.00 | 0.05 | 0.00 | 91 | 1010.0 |
| 20260508114217 | 40 | 90 | 2.0 | 2.0 | 0.00 | 0.05 | 0.00 | 91 | 1010.0 |
| 20260508113237 | 39 | 0 | 1.0 | 2.0 | 0.00 | 0.05 | 0.00 | 91 | 1009.9 |
| 20260508112217 | 39 | 0 | 1.0 | 1.0 | 0.00 | 0.05 | 0.00 | 91 | 1009.9 |
| 20260508111217 | 38 | 0.0 | 0.0 | 0.00 | 0.05 | 0.00 | 91 | 1009.7 | |
| 20260508110217 | 38 | 0.0 | 0.0 | 0.00 | 0.05 | 0.00 | 90 | 1009.6 | |
| 20260508105216 | 38 | 0.0 | 1.0 | 0.00 | 0.05 | 0.00 | 90 | 1009.6 | |
| 20260508104217 | 37 | 0.0 | 0.0 | 0.00 | 0.05 | 0.00 | 90 | 1009.5 | |
| 20260508103237 | 37 | 0.0 | 0.0 | 0.00 | 0.05 | 0.00 | 90 | 1009.4 | |
| 20260508102217 | 37 | 0.0 | 0.0 | 0.00 | 0.05 | 0.00 | 89 | 1009.4 | |
| 20260508101237 | 38 | 0.0 | 1.0 | 0.00 | 0.05 | 0.00 | 89 | 1009.4 | |
| 20260508100237 | 38 | 0 | 1.0 | 2.0 | 0.00 | 0.05 | 0.00 | 89 | 1009.4 |
| 20260508095216 | 38 | 338 | 1.0 | 1.0 | 0.00 | 0.05 | 0.00 | 89 | 1009.5 |
| 20260508094217 | 38 | 0.0 | 0.0 | 0.00 | 0.05 | 0.00 | 89 | 1009.6 | |
| 20260508093217 | 38 | 0.0 | 1.0 | 0.00 | 0.05 | 0.00 | 89 | 1009.6 | |
| 20260508092237 | 38 | 0.0 | 0.0 | 0.00 | 0.05 | 0.00 | 89 | 1009.5 | |
| 20260508091217 | 38 | 0.0 | 0.0 | 0.00 | 0.05 | 0.00 | 88 | 1009.8 | |
| 20260508090216 | 38 | 0.0 | 0.0 | 0.00 | 0.05 | 0.00 | 88 | 1009.8 | |
| 20260508085237 | 38 | 0.0 | 0.0 | 0.00 | 0.05 | 0.00 | 88 | 1009.9 | |
| 20260508084216 | 39 | 0.0 | 0.0 | 0.00 | 0.05 | 0.00 | 88 | 1010.0 | |
| 20260508083216 | 39 | 0.0 | 0.0 | 0.00 | 0.05 | 0.00 | 88 | 1010.1 | |
| 20260508082216 | 39 | 0.0 | 0.0 | 0.00 | 0.05 | 0.00 | 88 | 1010.1 | |
| 20260508081216 | 39 | 0.0 | 0.0 | 0.00 | 0.05 | 0.00 | 88 | 1010.2 | |
| 20260508080216 | 40 | 0.0 | 0.0 | 0.00 | 0.05 | 0.00 | 88 | 1010.2 | |
| 20260508075216 | 40 | 0.0 | 0.0 | 0.00 | 0.05 | 0.00 | 88 | 1010.3 | |
| 20260508074216 | 40 | 0.0 | 0.0 | 0.00 | 0.05 | 0.00 | 88 | 1010.4 | |
| 20260508073216 | 40 | 0.0 | 0.0 | 0.00 | 0.05 | 0.00 | 87 | 1010.5 | |
| 20260508072217 | 40 | 338 | 1.0 | 3.0 | 0.00 | 0.05 | 0.00 | 87 | 1010.5 |
| 20260508071216 | 41 | 0.0 | 1.0 | 0.00 | 0.05 | 0.00 | 87 | 1010.6 | |
| 20260508070216 | 41 | 0.0 | 1.0 | 0.00 | 0.05 | 0.00 | 86 | 1010.7 | |
| 20260508065216 | 40 | 0.0 | 0.0 | 0.00 | 0.05 | 0.00 | 86 | 1010.7 | |
| 20260508064216 | 40 | 315 | 2.0 | 2.0 | 0.00 | 0.05 | 0.00 | 85 | 1010.5 |
| 20260508063236 | 41 | 0.0 | 0.0 | 0.00 | 0.05 | 0.00 | 85 | 1010.5 | |
| 20260508062216 | 41 | 0.0 | 0.0 | 0.00 | 0.05 | 0.00 | 85 | 1010.6 | |
| 20260508061236 | 41 | 0.0 | 0.0 | 0.00 | 0.05 | 0.00 | 84 | 1010.6 | |
| 20260508060216 | 42 | 0.0 | 0.0 | 0.00 | 0.05 | 0.00 | 84 | 1010.6 | |
| 20260508055216 | 42 | 0.0 | 0.0 | 0.00 | 0.05 | 0.00 | 83 | 1010.4 | |
| 20260508054216 | 42 | 0.0 | 0.0 | 0.00 | 0.05 | 0.00 | 83 | 1010.5 | |
| 20260508053236 | 42 | 0.0 | 0.0 | 0.00 | 0.05 | 0.00 | 82 | 1010.4 | |
| 20260508052216 | 42 | 0.0 | 0.0 | 0.00 | 0.05 | 0.00 | 82 | 1010.4 | |
| 20260508051217 | 43 | 0.0 | 0.0 | 0.00 | 0.05 | 0.00 | 81 | 1010.2 | |
| 20260508050216 | 43 | 189 | 1.0 | 0.0 | 0.00 | 0.05 | 0.00 | 80 | 1010.2 |
| 20260508045217 | 44 | 0.0 | 0.0 | 0.00 | 0.05 | 0.05 | 80 | 1010.2 | |
| 20260508044216 | 44 | 0.0 | 1.0 | 0.00 | 0.05 | 0.05 | 79 | 1010.1 | |
| 20260508043217 | 44 | 0.0 | 0.0 | 0.00 | 0.05 | 0.05 | 78 | 1010.0 | |
| 20260508042217 | 45 | 0.0 | 0.0 | 0.00 | 0.05 | 0.05 | 78 | 1009.9 | |
| 20260508041237 | 45 | 0.0 | 1.0 | 0.00 | 0.05 | 0.05 | 77 | 1009.9 | |
| 20260508040217 | 45 | 0.0 | 0.0 | 0.00 | 0.05 | 0.05 | 76 | 1009.8 | |
| 20260508035217 | 46 | 0.0 | 0.0 | 0.00 | 0.05 | 0.05 | 76 | 1009.8 | |
| 20260508034217 | 46 | 293 | 2.0 | 3.0 | 0.00 | 0.05 | 0.05 | 74 | 1009.7 |
| 20260508033217 | 46 | 0.0 | 0.0 | 0.00 | 0.05 | 0.05 | 73 | 1009.6 | |
| 20260508032217 | 47 | 158 | 1.0 | 2.0 | 0.00 | 0.05 | 0.05 | 72 | 1009.6 |
| 20260508031217 | 47 | 0.0 | 0.0 | 0.00 | 0.05 | 0.05 | 72 | 1009.6 | |
| 20260508030217 | 47 | 68 | 1.0 | 2.0 | 0.00 | 0.05 | 0.05 | 71 | 1009.5 |
| 20260508025217 | 48 | 0.0 | 1.0 | 0.00 | 0.05 | 0.05 | 71 | 1009.5 | |
| 20260508024216 | 48 | 68 | 1.0 | 2.0 | 0.00 | 0.05 | 0.05 | 69 | 1009.4 |
| 20260508023217 | 49 | 68 | 2.0 | 2.0 | 0.00 | 0.05 | 0.05 | 68 | 1009.2 |
| 20260508022216 | 49 | 0.0 | 1.0 | 0.00 | 0.05 | 0.05 | 68 | 1009.2 | |
| 20260508021237 | 50 | 90 | 1.0 | 1.0 | 0.00 | 0.05 | 0.05 | 65 | 1009.0 |
| 20260508020217 | 51 | 0.0 | 2.0 | 0.00 | 0.05 | 0.05 | 64 | 1008.9 | |
| 20260508015217 | 52 | 180 | 1.0 | 1.0 | 0.00 | 0.05 | 0.05 | 63 | 1008.9 |
| 20260508014216 | 53 | 0.0 | 0.0 | 0.00 | 0.05 | 0.05 | 60 | 1008.6 | |
| 20260508013216 | 54 | 0.0 | 1.0 | 0.00 | 0.05 | 0.05 | 58 | 1008.5 | |
| 20260508012217 | 55 | 0.0 | 0.0 | 0.00 | 0.05 | 0.05 | 57 | 1008.5 | |
| 20260508011216 | 55 | 180 | 1.0 | 1.0 | 0.00 | 0.05 | 0.05 | 54 | 1008.3 |
| 20260508010237 | 56 | 0.0 | 0.0 | 0.00 | 0.05 | 0.05 | 52 | 1008.3 | |
| 20260508005217 | 57 | 203 | 1.0 | 1.0 | 0.00 | 0.05 | 0.05 | 51 | 1008.2 |
| 20260508004217 | 57 | 225 | 2.0 | 3.0 | 0.00 | 0.05 | 0.05 | 50 | 1008.1 |
| 20260508003216 | 58 | 248 | 3.0 | 4.0 | 0.00 | 0.05 | 0.05 | 49 | 1008.1 |
| 20260508002217 | 58 | 270 | 4.0 | 7.0 | 0.00 | 0.05 | 0.05 | 48 | 1008.2 |
| 20260508001216 | 59 | 270 | 6.0 | 10.0 | 0.00 | 0.05 | 0.05 | 47 | 1008.0 |
| 20260508000216 | 59 | 270 | 8.0 | 11.0 | 0.00 | 0.05 | 0.05 | 47 | 1007.9 |
| 20260507235216 | 59 | 225 | 8.0 | 11.0 | 0.00 | 0.05 | 0.05 | 47 | 1007.9 |
| 20260507234216 | 60 | 225 | 8.0 | 11.0 | 0.00 | 0.05 | 0.05 | 47 | 1008.0 |